Location: Wolf Lake
(46.8518°N, 80.6381°W)
Time: 10:21:46
(UTC-04:00)

ISS - Pass Details

Date: 17 March 2026
Orbit: 416 x 425 km, 51.6° (Epoch: 19 April)

Event Time Altitude Azimuth Distance (km) Brightness Sun altitude
Rises 20:58:16 0° 273° (W) 2,385 1.7 -15.5°
Reaches altitude 10° 21:00:28 10° 281° (W) 1,519 0.4 -15.9°
Maximum altitude 21:03:41 38° 352° (N) 669 -2.6 -16.4°
Enters shadow 21:05:19 23° 46° (NE) 960 -2.2 -16.7°
